Weather History for Teterboro, NJ

Change the Weather History Date:

Thursday, January 30, 2014

  Actual Average Record
Temperature  
Mean Temperature 19 °F -  
Max Temperature 28 °F 37 °F 62 °F (2006)
Min Temperature 10 °F 23 °F 10 °F (2000)
Degree Days  
Heating Degree Days 46    
Moisture  
Dew Point 3 °F    
Average Humidity 47    
Maximum Humidity 61    
Minimum Humidity 34    
Precipitation  
Precipitation 0.00 in - - ()
Sea Level Pressure  
Sea Level Pressure 30.36 in    
Wind  
Wind Speed 5 mph (SSW)    
Max Wind Speed 10 mph    
Max Gust Speed -    
Visibility 10 miles    
Events      
Averages and records for this station are not official NWS values.
T = Trace of Precipitation, MM = Missing Value Source: NWS Daily Summary

Daily Weather History Graph

Daily Weather History Graph

Search for Another Location

Airport:

Trip Planner

Search our weather history database for the weather conditions in past years. The results will help you decide how hot, cold, wet, or windy it might be!

Date:

Astronomy

Jan. 30, 2014 Rise Set
Actual Time 7:08 AM EST 5:11 PM EST
Civil Twilight 6:39 AM EST 5:40 PM EST
Nautical Twilight 6:06 AM EST 6:13 PM EST
Astronomical Twilight 5:34 AM EST 6:45 PM EST
Moon 6:32 AM EST (1/30) 5:20 PM EST (1/30)
Length of Visible Light 11h 01m
Length of Day
10h 02m
Waning Crescent, 0% of the Moon is Illuminated
Jan 30
Waning Crescent
Jan 30
New
Feb 6
First Quarter
Feb 14
Full
Feb 22
Last Quarter

Hourly Weather History & Observations

Time (EST) Temp. Windchill Dew Point Humidity Pressure Visibility Wind Dir Wind Speed Gust Speed Precip Events Conditions
12:51 AM 14.0 °F 8.2 °F -0.9 °F 52% 30.33 in 10.0 mi SSW 3.5 mph - N/A   Clear
1:51 AM 12.9 °F 3.8 °F -2.0 °F 51% 30.35 in 10.0 mi SW 5.8 mph - N/A   Clear
2:51 AM 12.0 °F 2.7 °F -0.0 °F 59% 30.38 in 10.0 mi SSW 5.8 mph - N/A   Clear
3:51 AM 10.0 °F 1.8 °F -0.9 °F 61% 30.38 in 10.0 mi South 4.6 mph - N/A   Clear
4:51 AM 12.0 °F 1.5 °F -0.9 °F 56% 30.41 in 10.0 mi SW 6.9 mph - N/A   Clear
5:51 AM 12.0 °F 4.1 °F -0.9 °F 56% 30.42 in 10.0 mi South 4.6 mph - N/A   Clear
6:51 AM 12.9 °F 6.9 °F -0.9 °F 54% 30.44 in 10.0 mi SE 3.5 mph - N/A   Clear
7:51 AM 15.1 °F - -0.0 °F 51% 30.45 in 10.0 mi Calm Calm - N/A   Clear
8:51 AM 21.0 °F 16.2 °F 1.9 °F 44% 30.46 in 10.0 mi NW 3.5 mph - N/A   Clear
9:51 AM 21.9 °F 14.5 °F -0.0 °F 38% 30.46 in 10.0 mi WNW 5.8 mph - 0.00 in   Clear
10:51 AM 24.1 °F - -0.0 °F 35% 30.47 in 10.0 mi Calm Calm - N/A   Clear
11:51 AM 25.0 °F 20.7 °F 1.0 °F 36% 30.43 in 10.0 mi South 3.5 mph - N/A   Clear
12:51 PM 26.1 °F 21.9 °F 1.0 °F 34% 30.40 in 10.0 mi SE 3.5 mph - N/A   Clear
1:51 PM 28.0 °F 20.8 °F 3.0 °F 34% 30.37 in 10.0 mi South 6.9 mph - N/A   Clear
2:51 PM 28.0 °F 20.0 °F 3.0 °F 34% 30.35 in 10.0 mi South 8.1 mph - N/A   Clear
3:51 PM 28.9 °F 19.8 °F 5.0 °F 36% 30.35 in 10.0 mi SSW 10.4 mph - N/A   Clear
4:51 PM 28.0 °F 20.0 °F 3.9 °F 36% 30.33 in 10.0 mi SSE 8.1 mph - N/A   Clear
5:51 PM 26.1 °F 20.5 °F 7.0 °F 44% 30.32 in 10.0 mi South 4.6 mph - N/A   Clear
6:51 PM 25.0 °F 18.1 °F 8.1 °F 49% 30.29 in 10.0 mi South 5.8 mph - N/A   Clear
7:51 PM 24.1 °F 18.2 °F 9.0 °F 53% 30.27 in 10.0 mi South 4.6 mph - N/A   Clear
8:51 PM 24.1 °F 17.0 °F 10.0 °F 55% 30.27 in 10.0 mi SSW 5.8 mph - N/A   Clear
9:51 PM 23.0 °F - 9.0 °F 55% 30.24 in 10.0 mi Calm Calm - N/A   Clear
10:51 PM 21.0 °F 14.6 °F 8.1 °F 57% 30.23 in 10.0 mi South 4.6 mph - N/A   Clear
11:51 PM 23.0 °F 18.4 °F 10.0 °F 58% 30.22 in 10.0 mi SSW 3.5 mph - N/A   Clear